This is the latest recevied weather packets stored in our database for station/object IK2YOU-3. If no packets are shown the sender has not sent any weather packets the latest 10 day(s).
| Time | Temp. | Humidity | Pressure | Rain* | Wind** | Luminosity | Snow |
|---|---|---|---|---|---|---|---|
| 1778130834 | 13.33° C | 86% | 1009.8 hPa | 0 mm | - | 46 W/m² | - |
| 1778130234 | 13.33° C | 86% | 1009.7 hPa | 0 mm | - | 59 W/m² | - |
| 1778129633 | 13.33° C | 86% | 1009.5 hPa | 0 mm | - | 38 W/m² | - |
| 1778129034 | 12.78° C | 85% | 1009.5 hPa | 0 mm | - | 18 W/m² | - |
| 1778128434 | 12.78° C | 85% | 1009.3 hPa | 0 mm | - | 12 W/m² | - |
| 1778127833 | 12.78° C | 85% | 1009.3 hPa | 0 mm | - | 7 W/m² | - |
| 1778127233 | 12.78° C | 85% | 1009.2 hPa | 0 mm | - | 3 W/m² | - |
| 1778126633 | 12.22° C | 85% | 1009.1 hPa | 0 mm | - | 0 W/m² | - |
| 1778126034 | 12.78° C | 85% | 1009 hPa | 0 mm | - | 0 W/m² | - |
| 1778125430 | 12.78° C | 85% | 1009 hPa | 0 mm | - | 0 W/m² | - |
| 1778124827 | 12.78° C | 85% | 1009 hPa | 0 mm | - | 0 W/m² | - |
| 1778124227 | 12.78° C | 85% | 1008.9 hPa | 0 mm | - | 0 W/m² | - |
| 1778123624 | 12.78° C | 84% | 1008.9 hPa | 0 mm | - | 0 W/m² | - |
| 1778123024 | 12.78° C | 84% | 1008.9 hPa | 0 mm | - | 0 W/m² | - |
| 1778122424 | 12.78° C | 84% | 1009 hPa | 0 mm | - | 0 W/m² | - |
| 1778121956 | 13.33° C | 84% | 1008.9 hPa | 0 mm | - | 0 W/m² | - |
| 1778121223 | 13.33° C | 84% | 1008.9 hPa | 0 mm | - | 0 W/m² | - |
| 1778120617 | 13.33° C | 84% | 1008.7 hPa | 0 mm | - | 0 W/m² | - |
| 1778120018 | 13.33° C | 85% | 1008.6 hPa | 0 mm | - | 0 W/m² | - |
| 1778119545 | 13.33° C | 85% | 1008.6 hPa | 0 mm | - | 0 W/m² | - |
| 1778118946 | 13.33° C | 85% | 1008.6 hPa | 0 mm | - | 0 W/m² | - |
| 1778118217 | 13.33° C | 85% | 1008.5 hPa | 0 mm | - | 0 W/m² | - |
| 1778117618 | 13.33° C | 85% | 1008.6 hPa | 0 mm | - | 0 W/m² | - |
| 1778117017 | 13.33° C | 86% | 1008.6 hPa | 0 mm | - | 0 W/m² | - |
| 1778116418 | 13.33° C | 86% | 1008.6 hPa | 0 mm | - | 0 W/m² | - |
* Rain latest hour (hover to see other rain measurements)
** Current wind speed in m/s (hover to see current wind gust speed)